User: anonymous   Login
Location: Theydon Bois
(51.6750°N, 0.1050°E)
Time: 18:46:25
(UTC+01:00)
Language:

Cosmos 1953 - Orbit

View from above orbital plane
View from above orbital plane
View from above satellite
View from above satellite

Ground track
Ground track

The orbit data is extracted from the following two-line orbital elements,

1 19210U 88050A   17294.06043345  .00000219  00000-0  13233-4 0  9990
2 19210  82.5144 271.3291 0013189 182.6708 177.4451 15.05390271596774
Epoch (UTC): 21 October 2017 01:27:01
Eccentricity: 0.0013189
inclination: 82.5144°
perigee height: 541 km
apogee height: 559 km
right ascension of ascending node: 271.3291°
argument of perigee: 182.6708°
revolutions per day: 15.05390271
mean anomaly at epoch: 177.4451°
orbit number at epoch: 59677

The dashed part of the orbit path shows where the satellite is in the earth's shadow,  

DLR